Troutdale, OR

3:39 PM PST on February 25, 2017 (GMT -0800)
Portland-Troutdale

Weather History for KTTD - May, 2014

Change the Weather History Date:

Saturday, May 17, 2014

  Actual Average Record
Temperature  
Mean Temperature 63 °F 58 °F  
Max Temperature 70 °F 69 °F 92 °F (2008)
Min Temperature 56 °F 47 °F 36 °F (1996)
Degree Days  
Heating Degree Days 2 8  
Month to date heating degree days 95 161  
Cooling Degree Days 0 0  
Month to date cooling degree days 26 0  
Growing Degree Days 12 (Base 50)    
Moisture  
Dew Point 48 °F    
Average Humidity 59    
Maximum Humidity 77    
Minimum Humidity 40    
Precipitation  
Precipitation T in 0.09 in 1.06 in (1972)
Month to date precipitation 1.38 1.62  
Year to date precipitation 16.28 21.38  
Sea Level Pressure  
Sea Level Pressure 29.99 in    
Wind  
Wind Speed 3 mph (West)    
Max Wind Speed 12 mph    
Max Gust Speed 16 mph    
Visibility 10 miles    
Events Rain    
T = Trace of Precipitation, MM = Missing Value Source: NWS Daily Summary

Daily Weather History Graph

Daily Weather History Graph

Search for Another Location

Airport or City:

Trip Planner

Search our weather history database for the weather conditions in past years. The results will help you decide how hot, cold, wet, or windy it might be!

Date:

Astronomy

May. 17, 2014 Rise Set
Actual Time 5:36 AM PDT 8:36 PM PDT
Civil Twilight 5:01 AM PDT 9:11 PM PDT
Nautical Twilight 4:16 AM PDT 9:56 PM PDT
Astronomical Twilight 3:23 AM PDT 10:50 PM PDT
Moon 11:39 PM PDT (5/17) 8:25 AM PDT (5/17)
Length of Visible Light 16h 09m
Length of Day
14h 59m
Waning Gibbous, 88% of the Moon is Illuminated
May 17
Waning Gibbous
May 21
Last Quarter
May 28
New
Jun 5
First Quarter
Jun 12
Full

Hourly Weather History & Observations

Time (PDT) Temp. Dew Point Humidity Pressure Visibility Wind Dir Wind Speed Gust Speed Precip Events Conditions
12:53 AM 57.9 °F 46.9 °F 67% 30.09 in 10.0 mi Variable 3.5 mph - N/A   Overcast
1:53 AM 57.0 °F 46.9 °F 69% 30.09 in 10.0 mi West 4.6 mph - N/A   Overcast
2:53 AM 57.0 °F 48.0 °F 72% 30.08 in 10.0 mi Calm Calm - N/A   Overcast
3:53 AM 57.0 °F 48.0 °F 72% 30.08 in 10.0 mi WSW 4.6 mph - N/A   Overcast
4:53 AM 57.0 °F 48.0 °F 72% 30.07 in 10.0 mi West 3.5 mph - N/A   Overcast
5:53 AM 57.0 °F 48.9 °F 74% 30.06 in 10.0 mi West 3.5 mph - N/A   Overcast
6:43 AM 55.9 °F 48.9 °F 77% 30.06 in 10.0 mi WSW 4.6 mph - N/A   Overcast
6:53 AM 55.9 °F 48.0 °F 75% 30.05 in 10.0 mi WSW 4.6 mph - N/A   Overcast
7:39 AM 57.0 °F 48.0 °F 72% 30.04 in 10.0 mi Calm Calm - N/A   Overcast
7:50 AM 57.2 °F 48.2 °F 72% 30.04 in 10.0 mi Calm Calm - N/A   Overcast
7:53 AM 57.0 °F 48.0 °F 72% 30.04 in 10.0 mi Calm Calm - N/A   Overcast
8:53 AM 57.0 °F 48.9 °F 74% 30.04 in 10.0 mi Calm Calm - N/A   Overcast
9:53 AM 57.9 °F 48.9 °F 72% 30.03 in 10.0 mi WSW 3.5 mph - N/A   Overcast
10:53 AM 57.9 °F 48.9 °F 72% 30.03 in 10.0 mi NE 4.6 mph - N/A   Overcast
11:22 AM 59.0 °F 48.9 °F 69% 30.03 in 10.0 mi ENE 5.8 mph - N/A   Overcast
11:53 AM 60.1 °F 48.9 °F 67% 30.02 in 10.0 mi NNE 4.6 mph - N/A   Overcast
12:53 PM 62.1 °F 48.0 °F 60% 30.01 in 10.0 mi Calm Calm - N/A   Overcast
1:53 PM 64.0 °F 48.9 °F 58% 29.99 in 10.0 mi NNW 4.6 mph - N/A   Overcast
2:53 PM 66.9 °F 48.9 °F 52% 29.96 in 10.0 mi Calm Calm - N/A   Mostly Cloudy
3:53 PM 66.9 °F 45.0 °F 45% 29.94 in 10.0 mi Variable 3.5 mph - N/A   Clear
4:53 PM 69.1 °F 46.0 °F 44% 29.91 in 10.0 mi NE 4.6 mph - N/A   Clear
5:53 PM 69.1 °F 46.0 °F 44% 29.89 in 10.0 mi Calm Calm - N/A   Clear
6:53 PM 69.1 °F 44.1 °F 40% 29.87 in 10.0 mi Calm Calm - N/A   Clear
7:53 PM 66.9 °F 46.0 °F 47% 29.85 in 10.0 mi Calm Calm - N/A   Clear
8:53 PM 62.1 °F 46.9 °F 58% 29.85 in 10.0 mi Calm Calm - N/A   Mostly Cloudy
9:53 PM 59.0 °F 46.9 °F 64% 29.86 in 10.0 mi West 4.6 mph - N/A   Clear
10:53 PM 60.1 °F 50.0 °F 69% 29.86 in 10.0 mi West 8.1 mph - 0.00 in Rain Light Rain
11:53 PM 57.0 °F 51.1 °F 81% 29.86 in 10.0 mi West 4.6 mph - 0.00 in   Mostly Cloudy